Weather History for Edwards AFB, CA

Change the Weather History Date:

Sunday, February 9, 2014

  Actual Average Record
Temperature  
Mean Temperature 60 °F -  
Max Temperature 75 °F 57 °F 77 °F (2006)
Min Temperature 46 °F 31 °F 23 °F (1997)
Degree Days  
Heating Degree Days 4    
Growing Degree Days 10 (Base 50)    
Moisture  
Dew Point 38 °F    
Average Humidity 52    
Maximum Humidity 83    
Minimum Humidity 15    
Precipitation  
Precipitation 0.00 in - - ()
Sea Level Pressure  
Sea Level Pressure 30.06 in    
Wind  
Wind Speed 15 mph (WSW)    
Max Wind Speed 30 mph    
Max Gust Speed 40 mph    
Visibility 10 miles    
Events      
Averages and records for this station are not official NWS values.
T = Trace of Precipitation, MM = Missing Value Source: NWS Daily Summary

Daily Weather History Graph

Daily Weather History Graph

Search for Another Location

Airport:

Trip Planner

Search our weather history database for the weather conditions in past years. The results will help you decide how hot, cold, wet, or windy it might be!

Date:

Astronomy

Feb. 09, 2014 Rise Set
Actual Time 6:43 AM PST 5:28 PM PST
Civil Twilight 6:17 AM PST 5:54 PM PST
Nautical Twilight 5:47 AM PST 6:24 PM PST
Astronomical Twilight 5:17 AM PST 6:54 PM PST
Moon 1:16 PM PST (2/9) 2:48 AM PST (2/9)
Length of Visible Light 11h 37m
Length of Day
10h 45m
Waxing Gibbous, 78% of the Moon is Illuminated
Feb 9
Waxing Gibbous
Feb 14
Full
Feb 22
Last Quarter
Mar 1
New
Mar 8
First Quarter

Hourly Weather History & Observations

Time (PST) Temp. Dew Point Humidity Pressure Visibility Wind Dir Wind Speed Gust Speed Precip Events Conditions
12:58 AM 48.4 °F 41.4 °F 77% 30.13 in 10.0 mi SSW 11.5 mph - N/A   Clear
1:58 AM 48.4 °F 40.6 °F 75% 30.11 in 10.0 mi SW 10.4 mph - N/A   Clear
2:58 AM 47.5 °F 40.5 °F 77% 30.09 in 10.0 mi SW 11.5 mph - N/A   Clear
3:58 AM 47.8 °F 40.8 °F 77% 30.09 in 10.0 mi WSW 15.0 mph - N/A   Scattered Clouds
4:58 AM 48.7 °F 41.9 °F 77% 30.07 in 10.0 mi WSW 16.1 mph - N/A   Scattered Clouds
5:58 AM 47.1 °F 41.0 °F 79% 30.09 in 10.0 mi SW 10.4 mph - N/A   Clear
6:55 AM 46.6 °F 41.5 °F 83% 30.09 in 90.0 mi SW 12.7 mph - N/A   Partly Cloudy
7:58 AM 49.8 °F 41.5 °F 73% 30.09 in 60.0 mi SSW 13.8 mph 19.6 mph N/A   Partly Cloudy
8:58 AM 54.7 °F 42.8 °F 64% 30.09 in 60.0 mi WSW 17.3 mph - N/A   Partly Cloudy
9:27 AM 57.2 °F 42.8 °F 59% 30.09 in 70.0 mi SW 18.4 mph 23.0 mph N/A   Partly Cloudy
9:58 AM 59.7 °F 41.5 °F 51% 30.09 in 90.0 mi WSW 18.4 mph - N/A   Partly Cloudy
10:58 AM 65.8 °F 35.1 °F 32% 30.07 in 90.0 mi WSW 21.9 mph 25.3 mph N/A   Partly Cloudy
11:58 AM 69.6 °F 33.6 °F 27% 30.02 in 90.0 mi WSW 16.1 mph - N/A   Scattered Clouds
12:58 PM 70.9 °F 34.2 °F 26% 30.00 in 90.0 mi West 16.1 mph - N/A   Scattered Clouds
1:58 PM 74.1 °F 23.7 °F 15% 29.97 in 90.0 mi WNW 12.7 mph 21.9 mph N/A   Scattered Clouds
2:02 PM 73.4 °F 28.4 °F 19% 30.01 in 10.0 mi West 16.1 mph 21.9 mph N/A   Clear
2:19 PM 75.2 °F 24.8 °F 15% 30.01 in 10.0 mi WSW 17.3 mph 26.5 mph N/A   Clear
2:23 PM 73.4 °F 24.8 °F 16% 30.01 in 10.0 mi WNW 16.1 mph 26.5 mph N/A   Clear
2:58 PM 68.9 °F 35.1 °F 29% 30.00 in 10.0 mi WNW 21.9 mph 32.2 mph N/A   Clear
3:58 PM 65.8 °F 37.4 °F 35% 30.01 in 10.0 mi WNW 20.7 mph 23.0 mph N/A   Clear
4:58 PM 64.4 °F 38.5 °F 38% 30.01 in 10.0 mi WNW 13.8 mph - N/A   Clear
5:58 PM 59.9 °F 39.6 °F 47% 30.04 in 10.0 mi WNW 19.6 mph - N/A   Clear
6:58 PM 58.1 °F 41.5 °F 54% 30.06 in 10.0 mi West 29.9 mph 40.3 mph N/A   Clear
7:58 PM 56.5 °F 42.4 °F 59% 30.04 in 10.0 mi West 26.5 mph 33.4 mph N/A   Clear
8:58 PM 57.0 °F 42.1 °F 57% 30.06 in 10.0 mi West 28.8 mph 40.3 mph N/A   Scattered Clouds
9:13 PM 57.2 °F 41.0 °F 55% 30.10 in 10.0 mi WNW 19.6 mph - N/A   Mostly Cloudy
9:58 PM 57.2 °F 40.5 °F 54% 30.05 in 10.0 mi West 21.9 mph 28.8 mph N/A   Scattered Clouds
10:58 PM 52.9 °F 42.3 °F 67% 30.07 in 10.0 mi SW 10.4 mph - N/A   Partly Cloudy
11:58 PM 53.6 °F 42.8 °F 67% 30.06 in 10.0 mi SW 8.1 mph 17.3 mph N/A   Mostly Cloudy